Location: Beckers Corners
(42.5484°N, 73.8110°W)
Time: 05:45:31
(UTC+00:00)

DIWATA 2B (PO-101) - Pass Details

Date: 14 December 2024
Orbit: 569 x 582 km, 98.1° (Epoch: 18 January)

Event Time Altitude Azimuth Distance (km) Brightness Sun altitude
Rises 22:53:09 0° 359° (N) 2,787 ? -16.0°
Reaches altitude 10° 22:55:39 10° 344° (NNW) 1,882 ? -16.4°
Maximum altitude 22:58:47 22° 294° (WNW) 1,279 ? -17.0°
Drops below altitude 10° 23:01:54 10° 243° (WSW) 1,868 ? -17.5°
Sets 23:04:23 0° 228° (SW) 2,760 ? -18.0°
